TimeMDT,TemperatureF,Dew PointF,Humidity,Sea Level PressureIn,VisibilityMPH,Wind Direction,Wind SpeedMPH,Gust SpeedMPH,PrecipitationIn,Events,Conditions,WindDirDegrees,DateUTC
12:10 AM,60.4,33.8,37,30.25,10.0,NNW,9.2,-,N/A,,Clear,330,2013-06-17 06:10:00
12:30 AM,59.9,34.7,39,30.25,10.0,NW,9.2,-,N/A,,Clear,320,2013-06-17 06:30:00
12:50 AM,54.1,40.8,61,30.26,10.0,ESE,8.1,19.6,N/A,,Clear,110,2013-06-17 06:50:00
1:10 AM,52.0,41.4,67,30.26,10.0,ENE,4.6,-,N/A,,Clear,60,2013-06-17 07:10:00
1:30 AM,52.2,43.5,72,30.25,10.0,Calm,Calm,-,N/A,,Clear,0,2013-06-17 07:30:00
1:50 AM,48.7,41.5,76,30.26,10.0,NNW,4.6,-,N/A,,Clear,330,2013-06-17 07:50:00
2:10 AM,49.6,41.0,72,30.25,10.0,NW,5.8,-,N/A,,Clear,320,2013-06-17 08:10:00
2:30 AM,48.7,40.3,73,30.26,10.0,NNW,5.8,-,N/A,,Clear,330,2013-06-17 08:30:00
2:50 AM,47.5,40.5,77,30.24,10.0,NNW,6.9,-,N/A,,Clear,330,2013-06-17 08:50:00
3:10 AM,50.2,40.3,69,30.24,10.0,NNW,4.6,-,N/A,,Clear,340,2013-06-17 09:10:00
3:30 AM,47.3,40.3,77,30.26,10.0,NNW,6.9,-,N/A,,Clear,330,2013-06-17 09:30:00
3:50 AM,50.2,39.7,67,30.26,10.0,WNW,10.4,17.3,N/A,,Clear,290,2013-06-17 09:50:00
4:10 AM,48.6,40.1,73,30.26,10.0,WNW,8.1,-,N/A,,Clear,290,2013-06-17 10:10:00
4:30 AM,49.3,39.7,70,30.25,10.0,NW,6.9,-,N/A,,Clear,320,2013-06-17 10:30:00
4:50 AM,49.1,39.6,70,30.24,10.0,NNW,5.8,-,N/A,,Clear,330,2013-06-17 10:50:00
5:10 AM,49.8,39.7,68,30.26,10.0,NW,8.1,-,N/A,,Clear,310,2013-06-17 11:10:00
5:30 AM,49.1,39.2,69,30.27,10.0,NW,3.5,-,N/A,,Clear,320,2013-06-17 11:30:00
5:50 AM,50.5,38.5,63,30.27,10.0,North,6.9,-,N/A,,Clear,360,2013-06-17 11:50:00
6:10 AM,51.3,39.9,65,30.28,10.0,West,6.9,-,N/A,,Clear,280,2013-06-17 12:10:00
6:30 AM,54.1,40.5,60,30.28,10.0,NW,6.9,-,N/A,,Clear,310,2013-06-17 12:30:00
6:50 AM,55.6,39.9,56,30.28,10.0,North,6.9,-,N/A,,Scattered Clouds,360,2013-06-17 12:50:00
7:10 AM,61.9,42.3,49,30.28,10.0,North,5.8,-,N/A,,Scattered Clouds,10,2013-06-17 13:10:00
7:30 AM,65.1,35.6,33,30.28,10.0,ESE,5.8,-,N/A,,Scattered Clouds,120,2013-06-17 13:30:00
7:50 AM,67.1,35.6,31,30.28,10.0,SSE,6.9,-,N/A,,Clear,150,2013-06-17 13:50:00
8:10 AM,68.9,34.9,29,30.28,10.0,South,8.1,-,N/A,,Clear,170,2013-06-17 14:10:00
8:30 AM,70.3,35.6,28,30.28,10.0,South,10.4,-,N/A,,Clear,180,2013-06-17 14:30:00
8:50 AM,71.1,34.9,27,30.28,10.0,SSE,11.5,16.1,N/A,,Clear,160,2013-06-17 14:50:00
9:10 AM,71.6,34.7,26,30.28,10.0,South,8.1,-,N/A,,Clear,190,2013-06-17 15:10:00
9:30 AM,72.3,35.4,26,30.28,10.0,South,10.4,-,N/A,,Clear,180,2013-06-17 15:30:00
9:50 AM,73.9,34.2,23,30.28,10.0,SSE,10.4,16.1,N/A,,Clear,160,2013-06-17 15:50:00
10:10 AM,73.8,35.4,25,30.28,10.0,South,11.5,-,N/A,,Clear,180,2013-06-17 16:10:00
10:30 AM,74.5,36.9,26,30.28,10.0,South,10.4,21.9,N/A,,Clear,170,2013-06-17 16:30:00
10:50 AM,75.2,35.8,24,30.29,10.0,SSE,16.1,20.7,N/A,,Clear,160,2013-06-17 16:50:00
11:10 AM,75.6,35.1,23,30.29,10.0,South,15.0,25.3,N/A,Thunderstorm,Clear,180,2013-06-17 17:10:00
11:30 AM,77.0,36.5,23,30.29,10.0,SSE,12.7,21.9,N/A,Thunderstorm,Clear,150,2013-06-17 17:30:00
11:50 AM,77.0,34.9,22,30.28,10.0,SSW,11.5,20.7,N/A,,Clear,210,2013-06-17 17:50:00
12:10 PM,73.4,34.5,24,30.28,10.0,ESE,9.2,21.9,N/A,,Mostly Cloudy,120,2013-06-17 18:10:00
12:30 PM,72.9,34.2,24,30.29,10.0,East,5.8,-,N/A,,Mostly Cloudy,80,2013-06-17 18:30:00
12:50 PM,75.9,35.8,23,30.29,10.0,NNE,8.1,-,N/A,Thunderstorm,Thunderstorm,20,2013-06-17 18:50:00
1:10 PM,74.8,36.5,25,30.28,10.0,NNE,9.2,19.6,N/A,,Scattered Clouds,20,2013-06-17 19:10:00
1:30 PM,72.3,34.3,25,30.28,10.0,South,11.5,17.3,N/A,,Mostly Cloudy,180,2013-06-17 19:30:00
1:50 PM,70.7,36.3,28,30.28,10.0,ENE,6.9,-,N/A,Rain,Light Rain,60,2013-06-17 19:50:00
2:10 PM,67.5,37.2,33,30.30,10.0,North,25.3,34.5,N/A,Rain-Thunderstorm,Light Thunderstorms and Rain,350,2013-06-17 20:10:00
2:30 PM,60.1,41.9,51,30.33,10.0,NNW,17.3,31.1,N/A,Rain-Thunderstorm,Light Thunderstorms and Rain,330,2013-06-17 20:30:00
2:50 PM,60.1,40.5,48,30.34,10.0,WNW,12.7,20.7,N/A,Rain-Thunderstorm,Thunderstorms and Rain,300,2013-06-17 20:50:00
3:10 PM,61.9,39.0,43,30.24,10.0,North,15.0,32.2,N/A,Rain,Light Rain,360,2013-06-17 21:10:00
3:30 PM,70.0,39.2,33,30.23,10.0,North,8.1,-,N/A,,Scattered Clouds,360,2013-06-17 21:30:00
3:50 PM,74.1,38.8,28,30.22,10.0,NNW,15.0,19.6,N/A,,Clear,330,2013-06-17 21:50:00
4:10 PM,71.6,38.1,30,30.23,10.0,NW,10.4,19.6,N/A,,Clear,320,2013-06-17 22:10:00
4:30 PM,73.8,37.0,26,30.23,10.0,NW,11.5,19.6,N/A,,Scattered Clouds,320,2013-06-17 22:30:00
4:50 PM,70.3,38.3,31,30.24,10.0,NNW,15.0,23.0,N/A,,Mostly Cloudy,330,2013-06-17 22:50:00
5:10 PM,66.2,41.2,40,30.24,10.0,North,15.0,25.3,N/A,Rain,Light Rain,350,2013-06-17 23:10:00
5:30 PM,68.4,41.2,37,30.24,10.0,North,8.1,-,N/A,,Scattered Clouds,10,2013-06-17 23:30:00
5:50 PM,68.2,41.0,37,30.25,10.0,South,8.1,-,N/A,,Mostly Cloudy,190,2013-06-17 23:50:00
6:10 PM,67.3,40.5,38,30.26,10.0,WSW,17.3,24.2,N/A,,Overcast,240,2013-06-18 00:10:00
6:30 PM,63.5,41.9,45,30.23,10.0,WSW,8.1,11.5,N/A,,Light Drizzle,250,2013-06-18 00:30:00
6:50 PM,64.9,43.5,46,30.22,10.0,WNW,9.2,17.3,N/A,,Overcast,290,2013-06-18 00:50:00
7:10 PM,64.4,41.9,44,30.22,10.0,West,8.1,-,N/A,,Overcast,270,2013-06-18 01:10:00
7:30 PM,63.9,43.0,47,30.23,10.0,West,11.5,-,N/A,Thunderstorm,Overcast,270,2013-06-18 01:30:00
7:50 PM,60.4,45.0,57,30.24,10.0,West,23.0,28.8,N/A,Rain-Thunderstorm,Light Thunderstorms and Rain,280,2013-06-18 01:50:00
8:10 PM,61.3,38.8,43,30.25,3.0,South,19.6,35.7,N/A,Rain,Rain,180,2013-06-18 02:10:00
8:30 PM,61.7,40.5,46,30.28,7.0,SW,17.3,42.6,N/A,Rain,Light Rain,230,2013-06-18 02:30:00
8:50 PM,58.1,45.0,62,30.32,10.0,WSW,17.3,24.2,N/A,Rain-Thunderstorm,Thunderstorms and Rain,240,2013-06-18 02:50:00
9:10 PM,56.5,44.6,64,30.31,10.0,WNW,21.9,33.4,N/A,Rain,Light Rain,300,2013-06-18 03:10:00
9:30 PM,55.6,45.5,69,30.33,10.0,NNW,10.4,39.1,N/A,Rain-Thunderstorm,Light Thunderstorms and Rain,330,2013-06-18 03:30:00
9:50 PM,55.6,45.1,68,30.30,10.0,ENE,8.1,-,N/A,,Mostly Cloudy,60,2013-06-18 03:50:00
10:10 PM,55.8,44.1,65,30.29,10.0,ESE,4.6,-,N/A,,Clear,110,2013-06-18 04:10:00
10:30 PM,54.7,45.1,70,30.29,10.0,Calm,Calm,-,N/A,,Clear,0,2013-06-18 04:30:00
10:50 PM,53.4,45.0,73,30.30,10.0,SSW,15.0,-,N/A,,Clear,210,2013-06-18 04:50:00
11:10 PM,53.2,45.9,76,30.30,10.0,SSW,12.7,17.3,N/A,,Scattered Clouds,200,2013-06-18 05:10:00
11:30 PM,54.1,45.3,72,30.30,10.0,SSW,10.4,20.7,N/A,,Scattered Clouds,210,2013-06-18 05:30:00
11:50 PM,54.1,45.5,73,30.29,10.0,WSW,11.5,18.4,N/A,,Scattered Clouds,240,2013-06-18 05:50:00